This demonstration page uses our WeatherBlox Daily Observations layout. Learn more.

Left ArrowRight Arrow

39.29038, -76.61219

Hourly Observations for November 18, 2020

Temp ( °F °C ) Dew Point ( °F °C ) Humidity (%) Winds ( mph kmh ) Pressure ( in mb ) Visibility ( mi km ) Precip ( " mm )
12:54 am 00:54 Partly Cloudy 36 2.2 21 -6.1 55 55 W 9 15 30.35 1028 10 16 0.00 0.00
1:54 am 01:54 Mostly Clear 35 1.7 19 -7.2 52 52 W 9 15 30.36 1028 10 16 0.00 0.00
2:54 am 02:54 Partly Cloudy 33 0.6 19 -7.2 56 56 W 8 13 30.38 1029 10 16 0.00 0.00
3:54 am 03:54 Mostly Cloudy 34 1.1 20 -6.7 56 56 WSW 8 13 30.40 1029 10 16 0.00 0.00
4:54 am 04:54 Cloudy 34 1.1 21 -6.1 59 59 W 7 11 30.41 1030 10 16 0.00 0.00
5:54 am 05:54 Mostly Cloudy 34 1.1 21 -6.1 59 59 W 9 15 30.43 1031 10 16 0.00 0.00
6:54 am 06:54 Mostly Cloudy 36 2.2 20 -6.7 52 52 W 12 19 30.45 1031 10 16 0.00 0.00
7:54 am 07:54 Mostly Cloudy 37 2.8 20 -6.7 50 50 WNW 10 17 30.48 1032 10 16 0.00 0.00
8:54 am 08:54 Mostly Cloudy 41 5 22 -5.6 47 47 WNW 9 15 30.50 1033 10 16 0.00 0.00
9:54 am 09:54 Mostly Cloudy 41 5 20 -6.7 43 43 WNW 15 24 30.53 1034 10 16 0.00 0.00
10:54 am 10:54 Mostly Cloudy 43 6.1 20 -6.7 40 40 NW 12 19 30.53 1034 10 16 0.00 0.00
11:54 am 11:54 Partly Cloudy 45 7.2 20 -6.7 37 37 NNW 12 19 30.53 1034 10 16 0.00 0.00
12:54 pm 12:54 Partly Cloudy 43 6.1 19 -7.2 38 38 WNW 13 20 30.51 1033 10 16 0.00 0.00
1:54 pm 13:54 Partly Cloudy 45 7.2 21 -6.1 39 39 NW 16 26 30.50 1033 10 16 0.00 0.00
2:54 pm 14:54 Partly Cloudy 44 6.7 21 -6.1 40 40 WNW 16 26 30.51 1033 10 16 0.00 0.00
3:54 pm 15:54 Mostly Sunny 42 5.6 20 -6.7 41 41 NW 12 19 30.52 1034 10 16 0.00 0.00
4:54 pm 16:54 Mostly Clear 40 4.4 20 -6.7 45 45 NW 8 13 30.53 1034 10 16 0.00 0.00
5:54 pm 17:54 Clear 37 2.8 21 -6.1 52 52 NW 3 6 30.57 1035 10 16 0.00 0.00
6:54 pm 18:54 Clear 36 2.2 21 -6.1 55 55 Calm 30.58 1036 10 16 0.00 0.00
7:54 pm 19:54 Clear 37 2.8 21 -6.1 52 52 N 5 7 30.59 1036 10 16 0.00 0.00
8:54 pm 20:54 Mostly Clear 32 0 23 -5 69 69 Calm 30.60 1036 10 16 0.00 0.00
9:54 pm 21:54 Clear 31 -0.6 22 -5.6 69 69 Calm 30.60 1036 10 16 0.00 0.00
10:54 pm 22:54 Clear 30 -1.1 22 -5.6 72 72 W 3 6 30.60 1036 10 16 0.00 0.00
11:54 pm 23:54 Clear 30 -1.1 22 -5.6 72 72 Calm 30.60 1036 10 16 0.00 0.00

Powered by AerisWeather